Weather History for VOTR - March, 2014

Change the Weather History Date:

Tuesday, March 4, 2014

  Actual Average Record
Temperature  
Mean Temperature 84 °F -  
Max Temperature 95 °F 92 °F 100 °F (2012)
Min Temperature 73 °F 77 °F 70 °F (2013)
Cooling Degree Days 19    
Growing Degree Days 34 (Base 50)    
Moisture  
Dew Point 70 °F    
Average Humidity 63    
Maximum Humidity 94    
Minimum Humidity 29    
Precipitation  
Precipitation 0.00 in - - ()
Sea Level Pressure  
Sea Level Pressure 29.89 in    
Wind  
Wind Speed 6 mph ()    
Max Wind Speed 15 mph    
Max Gust Speed 24 mph    
Visibility 3.7 miles    
Events      
Averages and records for this station are not official NWS values.
T = Trace of Precipitation, MM = Missing Value Source: Averaged Metar Reports

Daily Weather History Graph

Daily Weather History Graph

Search for Another Location

Airport or City:

Trip Planner

Search our weather history database for the weather conditions in past years. The results will help you decide how hot, cold, wet, or windy it might be!

Date:

Astronomy

Mar. 04, 2014 Rise Set
Actual Time 6:28 AM IST 6:25 PM IST
Civil Twilight 6:07 AM IST 6:46 PM IST
Nautical Twilight 5:42 AM IST 7:11 PM IST
Astronomical Twilight 5:18 AM IST 7:35 PM IST
Moon 8:36 AM IST (3/4) 9:17 PM IST (3/4)
Length of Visible Light 12h 39m
Length of Day
11h 56m
Waxing Crescent, 11% of the Moon is Illuminated
Mar 4
Waxing Crescent
Mar 8
First Quarter
Mar 16
Full
Mar 24
Last Quarter
Mar 31
New

Hourly Weather History & Observations

Time (IST) Temp. Heat Index Dew Point Humidity Pressure Visibility Wind Dir Wind Speed Gust Speed Precip Events Conditions
12:10 AM 78.8 °F - 71.6 °F 78% 29.92 in 3.7 mi NE 5.8 mph - N/A   Mostly Cloudy
1:10 AM 78.8 °F - 71.6 °F 78% 29.89 in 3.1 mi ENE 4.6 mph - N/A   Haze
1:40 AM 78.8 °F - 71.6 °F 78% 29.89 in 3.1 mi NE 3.5 mph - N/A   Haze
2:10 AM 77.0 °F - 71.6 °F 83% 29.89 in 3.1 mi Calm Calm - N/A   Haze
2:30 AM 78 °F - 72 °F 76% 29.88 in 2 mi Calm Calm - -   Haze
2:40 AM 77.0 °F - 71.6 °F 83% 29.89 in 3.1 mi Variable 1.2 mph - N/A   Haze
3:10 AM 77.0 °F - 71.6 °F 83% 29.86 in 3.1 mi ENE 3.5 mph - N/A   Haze
3:40 AM 77.0 °F - 71.6 °F 83% 29.86 in 3.1 mi NE 5.8 mph - N/A   Haze
5:30 AM 76 °F - 72 °F 84% 29.90 in 2 mi NNE 3.5 mph - -   Haze
5:40 AM 75.2 °F - 71.6 °F 89% 29.89 in 2.5 mi NNE 3.5 mph - N/A   Haze
6:10 AM 75.2 °F - 73.4 °F 94% 29.89 in 2.5 mi NNE 3.5 mph - N/A   Haze
7:10 AM 75.2 °F - 71.6 °F 89% 29.92 in 1.6 mi NE 3.5 mph - N/A   Haze
7:40 AM 77.0 °F - 71.6 °F 83% 29.92 in 1.6 mi NE 5.8 mph - N/A   Haze
8:10 AM 77.0 °F - 71.6 °F 83% 29.95 in 1.6 mi ENE 5.8 mph - N/A   Haze
8:30 AM 81 °F - 72 °F 67% 29.94 in 1 mi NE 6.9 mph - -   Haze
9:10 AM 82.4 °F 87.2 °F 71.6 °F 70% 29.95 in 1.9 mi ENE 6.9 mph - N/A   Haze
9:40 AM 84.2 °F 89.6 °F 71.6 °F 66% 29.95 in 2.5 mi ENE 9.2 mph - N/A   Haze
10:40 AM 86.0 °F 91.8 °F 71.6 °F 62% 29.95 in 3.1 mi NE 5.8 mph - N/A   Haze
11:10 AM 87.8 °F 93.8 °F 71.6 °F 58% 29.95 in 3.1 mi ENE 9.2 mph - N/A   Haze
11:30 AM 88 °F - 69 °F 44% 29.92 in 2 mi NE 9.2 mph - -   Haze
11:40 AM 87.8 °F 92.6 °F 69.8 °F 55% 29.92 in 3.7 mi NE 9.2 mph - N/A   Scattered Clouds
12:10 PM 89.6 °F 93.4 °F 68.0 °F 49% 29.92 in 3.7 mi NE 11.5 mph - N/A   Scattered Clouds
12:40 PM 91.4 °F 95.4 °F 68.0 °F 46% 29.89 in 5.0 mi NE 11.5 mph - N/A   Scattered Clouds
1:10 PM 93.2 °F 97.7 °F 68.0 °F 44% 29.89 in 5.0 mi ENE 9.2 mph - N/A   Scattered Clouds
1:40 PM 93.2 °F 97.7 °F 68.0 °F 44% 29.86 in 5.0 mi NE 11.5 mph - N/A   Scattered Clouds
2:10 PM 93.2 °F 97.7 °F 68.0 °F 44% 29.86 in 5.0 mi NE 9.2 mph - N/A   Scattered Clouds
2:30 PM 94 °F - 65 °F 29% 29.83 in 6 mi ENE 6.9 mph - -   Partly Cloudy
2:40 PM 95.0 °F 98.5 °F 66.2 °F 39% 29.83 in 6.2 mi ENE 9.2 mph - N/A   Scattered Clouds
3:10 PM 95.0 °F 98.5 °F 66.2 °F 39% 29.83 in 6.2 mi ENE 9.2 mph - N/A   Scattered Clouds
3:40 PM 95.0 °F 98.5 °F 66.2 °F 39% 29.80 in 6.2 mi East 9.2 mph - N/A   Partly Cloudy
4:10 PM 95.0 °F 98.5 °F 66.2 °F 39% 29.80 in 6.2 mi ENE 6.9 mph - N/A   Partly Cloudy
4:40 PM 93.2 °F 96.2 °F 66.2 °F 41% 29.80 in 6.2 mi East 10.4 mph - N/A   Scattered Clouds
5:10 PM 91.4 °F 94.0 °F 66.2 °F 43% 29.80 in 6.2 mi East 11.5 mph - N/A   Partly Cloudy
5:30 PM 91 °F - 67 °F 36% 29.80 in 6 mi ESE 15.0 mph - -   Partly Cloudy
5:40 PM 91.4 °F 95.4 °F 68.0 °F 46% 29.80 in 6.2 mi East 11.5 mph 23.0 mph N/A   Partly Cloudy
6:10 PM 87.8 °F 91.4 °F 68.0 °F 52% 29.83 in 5.0 mi ESE 11.5 mph 23.0 mph N/A   Partly Cloudy
6:40 PM 86.0 °F 91.8 °F 71.6 °F 62% 29.83 in 3.7 mi East 11.5 mph 23.0 mph N/A   Partly Cloudy
7:10 PM 84.2 °F 88.4 °F 69.8 °F 62% 29.86 in 3.7 mi East 12.7 mph 24.2 mph N/A   Partly Cloudy
7:40 PM 82.4 °F 86.3 °F 69.8 °F 66% 29.89 in 3.7 mi East 15.0 mph - N/A   Partly Cloudy
8:10 PM 82.4 °F 86.3 °F 69.8 °F 66% 29.89 in 3.7 mi East 15.0 mph - N/A   Partly Cloudy
8:30 PM 82 °F - 70 °F 59% 29.90 in 2 mi East 13.8 mph - -   Haze
8:40 PM 82.4 °F 87.2 °F 71.6 °F 70% 29.92 in 3.7 mi East 13.8 mph - N/A   Partly Cloudy
9:10 PM 80.6 °F 84.6 °F 71.6 °F 74% 29.92 in 3.7 mi East 11.5 mph - N/A   Partly Cloudy
9:40 PM 80.6 °F 84.6 °F 71.6 °F 74% 29.95 in 3.7 mi East 11.5 mph - N/A   Partly Cloudy
10:10 PM 80.6 °F 84.6 °F 71.6 °F 74% 29.95 in 3.7 mi East 10.4 mph - N/A   Partly Cloudy
10:40 PM 80.6 °F 84.6 °F 71.6 °F 74% 29.95 in 3.7 mi East 8.1 mph - N/A   Scattered Clouds
11:30 PM 79 °F - 72 °F 72% 29.94 in 2 mi ENE 9.2 mph - -   Haze
11:40 PM 78.8 °F - 71.6 °F 78% 29.95 in 3.1 mi ENE 6.9 mph - N/A   Haze